Year,Month,Day,Hour,Minute,Value (Times are PST for temperature in C)
2016,08,13,00,00,18.50
2016,08,13,00,01,18.50
2016,08,13,00,02,18.50
2016,08,13,00,03,18.50
2016,08,13,00,04,18.50
2016,08,13,00,05,18.40
2016,08,13,00,06,18.40
2016,08,13,00,07,18.40
2016,08,13,00,08,18.40
2016,08,13,00,09,18.40
2016,08,13,00,10,18.40
2016,08,13,00,11,18.40
2016,08,13,00,12,18.40
2016,08,13,00,13,18.40
2016,08,13,00,14,18.40
2016,08,13,00,15,18.40
2016,08,13,00,16,18.40
2016,08,13,00,17,18.40
2016,08,13,00,18,18.40
2016,08,13,00,19,18.40
2016,08,13,00,20,18.40
2016,08,13,00,21,18.50
2016,08,13,00,22,18.50
2016,08,13,00,23,18.50
2016,08,13,00,24,18.50
2016,08,13,00,25,18.50
2016,08,13,00,26,18.50
2016,08,13,00,27,18.50
2016,08,13,00,28,18.60
2016,08,13,00,29,18.60
2016,08,13,00,30,18.60
2016,08,13,00,31,18.60
2016,08,13,00,32,18.70
2016,08,13,00,33,18.70
2016,08,13,00,34,18.80
2016,08,13,00,35,18.80
2016,08,13,00,36,18.90
2016,08,13,00,37,18.90
2016,08,13,00,38,18.90
2016,08,13,00,39,18.90
2016,08,13,00,40,18.90
2016,08,13,00,41,18.90
2016,08,13,00,42,18.90
2016,08,13,00,43,19.00
2016,08,13,00,44,19.10
2016,08,13,00,45,19.10
2016,08,13,00,46,19.10
2016,08,13,00,47,19.10
2016,08,13,00,48,19.10
2016,08,13,00,49,19.10
2016,08,13,00,50,19.20
2016,08,13,00,51,19.20
2016,08,13,00,52,19.30
2016,08,13,00,53,19.30
2016,08,13,00,54,19.30
2016,08,13,00,55,19.30
2016,08,13,00,56,19.40
2016,08,13,00,57,19.40
2016,08,13,00,58,19.40
2016,08,13,00,59,19.40
2016,08,13,01,00,19.50
2016,08,13,01,01,19.50
2016,08,13,01,02,19.50
2016,08,13,01,03,19.50
2016,08,13,01,04,19.50
2016,08,13,01,05,19.50
2016,08,13,01,06,19.50
2016,08,13,01,07,19.40
2016,08,13,01,08,19.40
2016,08,13,01,09,19.40
2016,08,13,01,10,19.30
2016,08,13,01,11,19.30
2016,08,13,01,12,19.20
2016,08,13,01,13,19.10
2016,08,13,01,14,19.10
2016,08,13,01,15,19.00
2016,08,13,01,16,18.90
2016,08,13,01,17,18.90
2016,08,13,01,18,18.80
2016,08,13,01,19,18.80
2016,08,13,01,20,18.80
2016,08,13,01,21,18.70
2016,08,13,01,22,18.70
2016,08,13,01,23,18.70
2016,08,13,01,24,18.70
2016,08,13,01,25,18.70
2016,08,13,01,26,18.70
2016,08,13,01,27,18.60
2016,08,13,01,28,18.60
2016,08,13,01,29,18.60
2016,08,13,01,30,18.60
2016,08,13,01,31,18.60
2016,08,13,01,32,18.60
2016,08,13,01,33,18.50
2016,08,13,01,34,18.50
2016,08,13,01,35,18.50
2016,08,13,01,36,18.50
2016,08,13,01,37,18.50
2016,08,13,01,38,18.50
2016,08,13,01,39,18.50
2016,08,13,01,40,18.50
2016,08,13,01,41,18.40
2016,08,13,01,42,18.40
2016,08,13,01,43,18.40
2016,08,13,01,44,18.40
2016,08,13,01,45,18.40
2016,08,13,01,46,18.30
2016,08,13,01,47,18.30
2016,08,13,01,48,18.30
2016,08,13,01,49,18.30
2016,08,13,01,50,18.30
2016,08,13,01,51,18.20
2016,08,13,01,52,18.20
2016,08,13,01,53,18.20
2016,08,13,01,54,18.20
2016,08,13,01,55,18.20
2016,08,13,01,56,18.20
2016,08,13,01,57,18.20
2016,08,13,01,58,18.20
2016,08,13,01,59,18.20
2016,08,13,02,00,18.20
2016,08,13,02,01,18.20
2016,08,13,02,02,18.10
2016,08,13,02,03,18.10
2016,08,13,02,04,18.10
2016,08,13,02,05,18.10
2016,08,13,02,06,18.10
2016,08,13,02,07,17.90
2016,08,13,02,08,17.90
2016,08,13,02,09,17.90
2016,08,13,02,10,17.90
2016,08,13,02,11,17.90
2016,08,13,02,12,17.90
2016,08,13,02,13,17.90
2016,08,13,02,14,17.90
2016,08,13,02,15,17.90
2016,08,13,02,16,17.90
2016,08,13,02,17,17.90
2016,08,13,02,18,17.90
2016,08,13,02,19,17.80
2016,08,13,02,20,17.80
2016,08,13,02,21,17.80
2016,08,13,02,22,17.80
2016,08,13,02,23,17.80
2016,08,13,02,24,17.80
2016,08,13,02,25,17.90
2016,08,13,02,26,17.90
2016,08,13,02,27,17.90
2016,08,13,02,28,17.90
2016,08,13,02,29,17.90
2016,08,13,02,30,17.80
2016,08,13,02,31,17.80
2016,08,13,02,32,17.70
2016,08,13,02,33,17.70
2016,08,13,02,34,17.60
2016,08,13,02,35,17.50
2016,08,13,02,36,17.50
2016,08,13,02,37,17.40
2016,08,13,02,38,17.30
2016,08,13,02,39,17.20
2016,08,13,02,40,17.10
2016,08,13,02,41,17.10
2016,08,13,02,42,17.00
2016,08,13,02,43,17.00
2016,08,13,02,44,17.00
2016,08,13,02,45,17.00
2016,08,13,02,46,16.90
2016,08,13,02,47,16.90
2016,08,13,02,48,16.90
2016,08,13,02,49,16.90
2016,08,13,02,50,16.80
2016,08,13,02,51,16.80
2016,08,13,02,52,16.70
2016,08,13,02,53,16.70
2016,08,13,02,54,16.70
2016,08,13,02,55,16.60
2016,08,13,02,56,16.60
2016,08,13,02,57,16.60
2016,08,13,02,58,16.50
2016,08,13,02,59,16.40
2016,08,13,03,00,16.40
2016,08,13,03,01,16.40
2016,08,13,03,02,16.40
2016,08,13,03,03,16.40
2016,08,13,03,04,16.40
2016,08,13,03,05,16.40
2016,08,13,03,06,16.30
2016,08,13,03,07,16.30
2016,08,13,03,08,16.30
2016,08,13,03,09,16.30
2016,08,13,03,10,16.30
2016,08,13,03,11,16.30
2016,08,13,03,12,16.30
2016,08,13,03,13,16.30
2016,08,13,03,14,16.30
2016,08,13,03,15,16.30
2016,08,13,03,16,16.30
2016,08,13,03,17,16.30
2016,08,13,03,18,16.20
2016,08,13,03,19,16.20
2016,08,13,03,20,16.20
2016,08,13,03,21,16.20
2016,08,13,03,22,16.20
2016,08,13,03,23,16.20
2016,08,13,03,24,16.20
2016,08,13,03,25,16.20
2016,08,13,03,26,16.20
2016,08,13,03,27,16.20
2016,08,13,03,28,16.20
2016,08,13,03,29,16.20
2016,08,13,03,30,16.20
2016,08,13,03,31,16.10
2016,08,13,03,32,16.10
2016,08,13,03,33,16.10
2016,08,13,03,34,16.10
2016,08,13,03,35,16.10
2016,08,13,03,36,16.10
2016,08,13,03,37,16.10
2016,08,13,03,38,16.10
2016,08,13,03,39,16.10
2016,08,13,03,40,16.10
2016,08,13,03,41,16.10
2016,08,13,03,42,16.10
2016,08,13,03,43,16.10
2016,08,13,03,44,16.10
2016,08,13,03,45,16.10
2016,08,13,03,46,16.10
2016,08,13,03,47,16.10
2016,08,13,03,48,16.10
2016,08,13,03,49,16.10
2016,08,13,03,50,16.10
2016,08,13,03,51,16.20
2016,08,13,03,52,16.20
2016,08,13,03,53,16.20
2016,08,13,03,54,16.20
2016,08,13,03,55,16.30
2016,08,13,03,56,16.30
2016,08,13,03,57,16.30
2016,08,13,03,58,16.40
2016,08,13,03,59,16.40
2016,08,13,04,00,16.40
2016,08,13,04,01,16.40
2016,08,13,04,02,16.50
2016,08,13,04,03,16.60
2016,08,13,04,04,16.60
2016,08,13,04,05,16.70
2016,08,13,04,06,16.60
2016,08,13,04,07,16.60
2016,08,13,04,08,16.60
2016,08,13,04,09,16.70
2016,08,13,04,10,16.70
2016,08,13,04,11,16.70
2016,08,13,04,12,16.70
2016,08,13,04,13,16.70
2016,08,13,04,14,16.70
2016,08,13,04,15,16.70
2016,08,13,04,16,16.70
2016,08,13,04,17,16.70
2016,08,13,04,18,16.70
2016,08,13,04,19,16.70
2016,08,13,04,20,16.70
2016,08,13,04,21,16.70
2016,08,13,04,22,16.70
2016,08,13,04,23,16.70
2016,08,13,04,24,16.70
2016,08,13,04,25,16.70
2016,08,13,04,26,16.70
2016,08,13,04,27,16.70
2016,08,13,04,28,16.70
2016,08,13,04,29,16.70
2016,08,13,04,30,16.70
2016,08,13,04,31,16.70
2016,08,13,04,32,16.70
2016,08,13,04,33,16.70
2016,08,13,04,34,16.70
2016,08,13,04,35,16.70
2016,08,13,04,36,16.70
2016,08,13,04,37,16.70
2016,08,13,04,38,16.70
2016,08,13,04,39,16.70
2016,08,13,04,40,16.70
2016,08,13,04,41,16.70
2016,08,13,04,42,16.70
2016,08,13,04,43,16.70
2016,08,13,04,44,16.70
2016,08,13,04,45,16.70
2016,08,13,04,46,16.70
2016,08,13,04,47,16.70
2016,08,13,04,48,16.70
2016,08,13,04,49,16.60
2016,08,13,04,50,16.60
2016,08,13,04,51,16.60
2016,08,13,04,52,16.60
2016,08,13,04,53,16.60
2016,08,13,04,54,16.60
2016,08,13,04,55,16.60
2016,08,13,04,56,16.60
2016,08,13,04,57,16.60
2016,08,13,04,58,16.60
2016,08,13,04,59,16.60
2016,08,13,05,00,16.60
2016,08,13,05,01,16.60
2016,08,13,05,02,16.60
2016,08,13,05,03,16.60
2016,08,13,05,04,16.60
2016,08,13,05,05,16.60
2016,08,13,05,06,16.60
2016,08,13,05,07,16.60
2016,08,13,05,08,16.50
2016,08,13,05,09,16.40
2016,08,13,05,10,16.40
2016,08,13,05,11,16.40
2016,08,13,05,12,16.40
2016,08,13,05,13,16.40
2016,08,13,05,14,16.40
2016,08,13,05,15,16.40
2016,08,13,05,16,16.40
2016,08,13,05,17,16.40
2016,08,13,05,18,16.40
2016,08,13,05,19,16.40
2016,08,13,05,20,16.40
2016,08,13,05,21,16.40
2016,08,13,05,22,16.30
2016,08,13,05,23,16.30
2016,08,13,05,24,16.30
2016,08,13,05,25,16.30
2016,08,13,05,26,16.30
2016,08,13,05,27,16.30
2016,08,13,05,28,16.30
2016,08,13,05,29,16.30
2016,08,13,05,30,16.20
2016,08,13,05,31,16.20
2016,08,13,05,32,16.20
2016,08,13,05,33,16.20
2016,08,13,05,34,16.20
2016,08,13,05,35,16.10
2016,08,13,05,36,16.10
2016,08,13,05,37,16.10
2016,08,13,05,38,16.10
2016,08,13,05,39,16.10
2016,08,13,05,40,16.10
2016,08,13,05,41,16.10
2016,08,13,05,42,16.10
2016,08,13,05,43,16.10
2016,08,13,05,44,16.10
2016,08,13,05,45,16.10
2016,08,13,05,46,16.10
2016,08,13,05,47,16.10
2016,08,13,05,48,16.10
2016,08,13,05,49,16.10
2016,08,13,05,50,16.10
2016,08,13,05,51,16.20
2016,08,13,05,52,16.20
2016,08,13,05,53,16.10
2016,08,13,05,54,16.10
2016,08,13,05,55,16.10
2016,08,13,05,56,16.10
2016,08,13,05,57,16.10
2016,08,13,05,58,16.10
2016,08,13,05,59,16.10
2016,08,13,06,00,16.10
2016,08,13,06,01,15.90
2016,08,13,06,02,15.90
2016,08,13,06,03,15.90
2016,08,13,06,04,15.90
2016,08,13,06,05,15.90
2016,08,13,06,06,15.80
2016,08,13,06,07,15.90
2016,08,13,06,08,15.90
2016,08,13,06,09,15.80
2016,08,13,06,10,15.80
2016,08,13,06,11,15.80
2016,08,13,06,12,15.80
2016,08,13,06,13,15.80
2016,08,13,06,14,15.80
2016,08,13,06,15,15.80
2016,08,13,06,16,15.80
2016,08,13,06,17,15.80
2016,08,13,06,18,15.80
2016,08,13,06,19,15.80
2016,08,13,06,20,15.80
2016,08,13,06,21,15.80
2016,08,13,06,22,15.80
2016,08,13,06,23,15.80
2016,08,13,06,24,15.80
2016,08,13,06,25,15.80
2016,08,13,06,26,15.70
2016,08,13,06,27,15.70
2016,08,13,06,28,15.70
2016,08,13,06,29,15.70
2016,08,13,06,30,15.70
2016,08,13,06,31,15.70
2016,08,13,06,32,15.70
2016,08,13,06,33,15.70
2016,08,13,06,34,15.70
2016,08,13,06,35,15.80
2016,08,13,06,36,15.80
2016,08,13,06,37,15.80
2016,08,13,06,38,15.80
2016,08,13,06,39,15.80
2016,08,13,06,40,15.80
2016,08,13,06,41,15.80
2016,08,13,06,42,15.90
2016,08,13,06,43,16.00
2016,08,13,06,44,16.10
2016,08,13,06,45,16.10
2016,08,13,06,46,16.10
2016,08,13,06,47,16.10
2016,08,13,06,48,16.10
2016,08,13,06,49,16.10
2016,08,13,06,50,16.10
2016,08,13,06,51,16.10
2016,08,13,06,52,16.10
2016,08,13,06,53,16.20
2016,08,13,06,54,16.20
2016,08,13,06,55,16.20
2016,08,13,06,56,16.30
2016,08,13,06,57,16.40
2016,08,13,06,58,16.40
2016,08,13,06,59,16.40
2016,08,13,07,00,16.50
2016,08,13,07,01,16.60
2016,08,13,07,02,16.60
2016,08,13,07,03,16.70
2016,08,13,07,04,16.70
2016,08,13,07,05,16.80
2016,08,13,07,06,16.80
2016,08,13,07,07,16.90
2016,08,13,07,08,17.00
2016,08,13,07,09,17.00
2016,08,13,07,10,17.10
2016,08,13,07,11,17.20
2016,08,13,07,12,17.30
2016,08,13,07,13,17.30
2016,08,13,07,14,17.30
2016,08,13,07,15,17.30
2016,08,13,07,16,17.40
2016,08,13,07,17,17.40
2016,08,13,07,18,17.50
2016,08,13,07,19,17.50
2016,08,13,07,20,17.50
2016,08,13,07,21,17.60
2016,08,13,07,22,17.60
2016,08,13,07,23,17.60
2016,08,13,07,24,17.70
2016,08,13,07,25,17.70
2016,08,13,07,26,17.70
2016,08,13,07,27,17.80
2016,08,13,07,28,17.80
2016,08,13,07,29,17.90
2016,08,13,07,30,17.90
2016,08,13,07,31,17.90
2016,08,13,07,32,18.00
2016,08,13,07,33,18.10
2016,08,13,07,34,18.10
2016,08,13,07,35,18.20
2016,08,13,07,36,18.20
2016,08,13,07,37,18.20
2016,08,13,07,38,18.30
2016,08,13,07,39,18.50
2016,08,13,07,40,18.60
2016,08,13,07,41,18.70
2016,08,13,07,42,18.80
2016,08,13,07,43,18.90
2016,08,13,07,44,19.00
2016,08,13,07,45,19.10
2016,08,13,07,46,19.10
2016,08,13,07,47,19.30
2016,08,13,07,48,19.30
2016,08,13,07,49,19.40
2016,08,13,07,50,19.50
2016,08,13,07,51,19.60
2016,08,13,07,52,19.70
2016,08,13,07,53,19.80
2016,08,13,07,54,19.80
2016,08,13,07,55,19.90
2016,08,13,07,56,20.00
2016,08,13,07,57,20.10
2016,08,13,07,58,20.20
2016,08,13,07,59,20.30
2016,08,13,08,00,20.30
2016,08,13,08,01,20.30
2016,08,13,08,02,20.40
2016,08,13,08,03,20.40
2016,08,13,08,04,20.40
2016,08,13,08,05,20.50
2016,08,13,08,06,20.50
2016,08,13,08,07,20.60
2016,08,13,08,08,20.70
2016,08,13,08,09,20.80
2016,08,13,08,10,20.90
2016,08,13,08,11,20.90
2016,08,13,08,12,21.00
2016,08,13,08,13,21.00
2016,08,13,08,14,21.10
2016,08,13,08,15,21.10
2016,08,13,08,16,21.20
2016,08,13,08,17,21.20
2016,08,13,08,18,21.20
2016,08,13,08,19,21.20
2016,08,13,08,20,21.20
2016,08,13,08,21,21.20
2016,08,13,08,22,21.30
2016,08,13,08,23,21.30
2016,08,13,08,24,21.30
2016,08,13,08,25,21.30
2016,08,13,08,26,21.20
2016,08,13,08,27,21.00
2016,08,13,08,28,20.90
2016,08,13,08,29,20.80
2016,08,13,08,30,20.80
2016,08,13,08,31,20.70
2016,08,13,08,32,20.50
2016,08,13,08,33,20.30
2016,08,13,08,34,20.20
2016,08,13,08,35,20.10
2016,08,13,08,36,20.00
2016,08,13,08,37,19.90
2016,08,13,08,38,19.90
2016,08,13,08,39,19.80
2016,08,13,08,40,19.80
2016,08,13,08,41,19.80
2016,08,13,08,42,19.60
2016,08,13,08,43,19.60
2016,08,13,08,44,19.50
2016,08,13,08,45,19.40
2016,08,13,08,46,19.40
2016,08,13,08,47,19.30
2016,08,13,08,48,19.30
2016,08,13,08,49,19.40
2016,08,13,08,50,19.40
2016,08,13,08,51,19.40
2016,08,13,08,52,19.50
2016,08,13,08,53,19.50
2016,08,13,08,54,19.60
2016,08,13,08,55,19.60
2016,08,13,08,56,19.70
2016,08,13,08,57,19.80
2016,08,13,08,58,19.90
2016,08,13,08,59,20.00
2016,08,13,09,00,20.10
2016,08,13,09,01,20.20
2016,08,13,09,02,20.30
2016,08,13,09,03,20.50
2016,08,13,09,04,20.60
2016,08,13,09,05,20.70
2016,08,13,09,06,20.80
2016,08,13,09,07,20.90
2016,08,13,09,08,21.00
2016,08,13,09,09,21.10
2016,08,13,09,10,21.20
2016,08,13,09,11,21.30
2016,08,13,09,12,21.30
2016,08,13,09,13,21.50
2016,08,13,09,14,21.60
2016,08,13,09,15,21.60
2016,08,13,09,16,21.70
2016,08,13,09,17,21.80
2016,08,13,09,18,21.80
2016,08,13,09,19,21.90
2016,08,13,09,20,21.90
2016,08,13,09,21,22.00
2016,08,13,09,22,22.00
2016,08,13,09,23,22.10
2016,08,13,09,24,22.20
2016,08,13,09,25,22.30
2016,08,13,09,26,22.30
2016,08,13,09,27,22.30
2016,08,13,09,28,22.40
2016,08,13,09,29,22.30
2016,08,13,09,30,22.20
2016,08,13,09,31,22.20
2016,08,13,09,32,22.00
2016,08,13,09,33,21.90
2016,08,13,09,34,21.80
2016,08,13,09,35,21.60
2016,08,13,09,36,21.50
2016,08,13,09,37,21.30
2016,08,13,09,38,21.20
2016,08,13,09,39,21.20
2016,08,13,09,40,21.10
2016,08,13,09,41,21.10
2016,08,13,09,42,21.10
2016,08,13,09,43,21.10
2016,08,13,09,44,21.10
2016,08,13,09,45,21.20
2016,08,13,09,46,21.30
2016,08,13,09,47,21.50
2016,08,13,09,48,21.60
2016,08,13,09,49,21.70
2016,08,13,09,50,21.70
2016,08,13,09,51,21.70
2016,08,13,09,52,21.80
2016,08,13,09,53,21.90
2016,08,13,09,54,22.00
2016,08,13,09,55,22.00
2016,08,13,09,56,22.10
2016,08,13,09,57,22.10
2016,08,13,09,58,22.10
2016,08,13,09,59,22.00
2016,08,13,10,00,22.00
2016,08,13,10,01,21.90
2016,08,13,10,02,21.70
2016,08,13,10,03,21.50
2016,08,13,10,04,21.20
2016,08,13,10,05,21.00
2016,08,13,10,06,21.00
2016,08,13,10,07,21.00
2016,08,13,10,08,21.00
2016,08,13,10,09,21.00
2016,08,13,10,10,21.10
2016,08,13,10,11,21.10
2016,08,13,10,12,21.20
2016,08,13,10,13,21.30
2016,08,13,10,14,21.40
2016,08,13,10,15,21.40
2016,08,13,10,16,21.40
2016,08,13,10,17,21.50
2016,08,13,10,18,21.60
2016,08,13,10,19,21.60
2016,08,13,10,20,21.60
2016,08,13,10,21,21.60
2016,08,13,10,22,21.50
2016,08,13,10,23,21.30
2016,08,13,10,24,21.30
2016,08,13,10,25,21.20
2016,08,13,10,26,21.20
2016,08,13,10,27,21.10
2016,08,13,10,28,21.10
2016,08,13,10,29,21.00
2016,08,13,10,30,20.90
2016,08,13,10,31,20.70
2016,08,13,10,32,20.60
2016,08,13,10,33,20.60
2016,08,13,10,34,20.60
2016,08,13,10,35,20.60
2016,08,13,10,36,20.50
2016,08,13,10,37,20.40
2016,08,13,10,38,20.30
2016,08,13,10,39,20.20
2016,08,13,10,40,20.20
2016,08,13,10,41,20.20
2016,08,13,10,42,20.20
2016,08,13,10,43,20.00
2016,08,13,10,44,19.90
2016,08,13,10,45,19.90
2016,08,13,10,46,19.80
2016,08,13,10,47,19.90
2016,08,13,10,48,19.90
2016,08,13,10,49,20.00
2016,08,13,10,50,20.20
2016,08,13,10,51,20.30
2016,08,13,10,52,20.20
2016,08,13,10,53,20.20
2016,08,13,10,54,20.00
2016,08,13,10,55,19.90
2016,08,13,10,56,20.00
2016,08,13,10,57,20.10
2016,08,13,10,58,20.20
2016,08,13,10,59,20.20
2016,08,13,11,00,20.20
2016,08,13,11,01,20.20
2016,08,13,11,02,20.10
2016,08,13,11,03,20.00
2016,08,13,11,04,19.90
2016,08,13,11,05,19.70
2016,08,13,11,06,19.60
2016,08,13,11,07,19.50
2016,08,13,11,08,19.50
2016,08,13,11,09,19.50
2016,08,13,11,10,19.50
2016,08,13,11,11,19.50
2016,08,13,11,12,19.50
2016,08,13,11,13,19.60
2016,08,13,11,14,19.60
2016,08,13,11,15,19.60
2016,08,13,11,16,19.60
2016,08,13,11,17,19.50
2016,08,13,11,18,19.50
2016,08,13,11,19,19.50
2016,08,13,11,20,19.50
2016,08,13,11,21,19.50
2016,08,13,11,22,19.50
2016,08,13,11,23,19.60
2016,08,13,11,24,19.60
2016,08,13,11,25,19.60
2016,08,13,11,26,19.70
2016,08,13,11,27,19.70
2016,08,13,11,28,19.60
2016,08,13,11,29,19.60
2016,08,13,11,30,19.60
2016,08,13,11,31,19.60
2016,08,13,11,32,19.50
2016,08,13,11,33,19.50
2016,08,13,11,34,19.40
2016,08,13,11,35,19.40
2016,08,13,11,36,19.30
2016,08,13,11,37,19.30
2016,08,13,11,38,19.30
2016,08,13,11,39,19.40
2016,08,13,11,40,19.40
2016,08,13,11,41,19.60
2016,08,13,11,42,19.70
2016,08,13,11,43,19.90
2016,08,13,11,44,20.00
2016,08,13,11,45,20.10
2016,08,13,11,46,20.10
2016,08,13,11,47,20.10
2016,08,13,11,48,20.00
2016,08,13,11,49,19.90
2016,08,13,11,50,20.00
2016,08,13,11,51,20.00
2016,08,13,11,52,19.90
2016,08,13,11,53,19.90
2016,08,13,11,54,19.90
2016,08,13,11,55,19.90
2016,08,13,11,56,19.90
2016,08,13,11,57,19.90
2016,08,13,11,58,19.90
2016,08,13,11,59,19.90
2016,08,13,12,00,19.90
2016,08,13,12,01,19.90
2016,08,13,12,02,20.00
2016,08,13,12,03,20.10
2016,08,13,12,04,20.10
2016,08,13,12,05,20.10
2016,08,13,12,06,20.10
2016,08,13,12,07,20.20
2016,08,13,12,08,20.40
2016,08,13,12,09,20.50
2016,08,13,12,10,20.50
2016,08,13,12,11,20.50
2016,08,13,12,12,20.60
2016,08,13,12,13,20.60
2016,08,13,12,14,20.50
2016,08,13,12,15,20.50
2016,08,13,12,16,20.60
2016,08,13,12,17,20.80
2016,08,13,12,18,20.80
2016,08,13,12,19,20.80
2016,08,13,12,20,20.70
2016,08,13,12,21,20.70
2016,08,13,12,22,20.70
2016,08,13,12,23,20.70
2016,08,13,12,24,20.70
2016,08,13,12,25,20.60
2016,08,13,12,26,20.70
2016,08,13,12,27,20.70
2016,08,13,12,28,20.70
2016,08,13,12,29,20.80
2016,08,13,12,30,20.90
2016,08,13,12,31,21.00
2016,08,13,12,32,21.00
2016,08,13,12,33,21.00
2016,08,13,12,34,21.00
2016,08,13,12,35,21.20
2016,08,13,12,36,21.20
2016,08,13,12,37,21.30
2016,08,13,12,38,21.30
2016,08,13,12,39,21.30
2016,08,13,12,40,21.30
2016,08,13,12,41,21.30
2016,08,13,12,42,21.30
2016,08,13,12,43,21.30
2016,08,13,12,44,21.30
2016,08,13,12,45,21.20
2016,08,13,12,46,21.20
2016,08,13,12,47,21.30
2016,08,13,12,48,21.30
2016,08,13,12,49,21.20
2016,08,13,12,50,21.10
2016,08,13,12,51,21.10
2016,08,13,12,52,21.20
2016,08,13,12,53,21.10
2016,08,13,12,54,21.20
2016,08,13,12,55,21.10
2016,08,13,12,56,21.00
2016,08,13,12,57,21.00
2016,08,13,12,58,21.10
2016,08,13,12,59,21.10
2016,08,13,13,00,21.20
2016,08,13,13,01,21.20
2016,08,13,13,02,21.20
2016,08,13,13,03,21.30
2016,08,13,13,04,21.40
2016,08,13,13,05,21.50
2016,08,13,13,06,21.60
2016,08,13,13,07,21.60
2016,08,13,13,08,21.60
2016,08,13,13,09,21.60
2016,08,13,13,10,21.50
2016,08,13,13,11,21.40
2016,08,13,13,12,21.50
2016,08,13,13,13,21.60
2016,08,13,13,14,21.70
2016,08,13,13,15,21.70
2016,08,13,13,16,21.80
2016,08,13,13,17,21.70
2016,08,13,13,18,21.60
2016,08,13,13,19,21.50
2016,08,13,13,20,21.60
2016,08,13,13,21,21.70
2016,08,13,13,22,21.80
2016,08,13,13,23,21.90
2016,08,13,13,24,22.00
2016,08,13,13,25,22.10
2016,08,13,13,26,22.20
2016,08,13,13,27,22.10
2016,08,13,13,28,22.20
2016,08,13,13,29,22.30
2016,08,13,13,30,22.40
2016,08,13,13,31,22.40
2016,08,13,13,32,22.40
2016,08,13,13,33,22.60
2016,08,13,13,34,22.70
2016,08,13,13,35,22.70
2016,08,13,13,36,22.60
2016,08,13,13,37,22.60
2016,08,13,13,38,22.50
2016,08,13,13,39,22.40
2016,08,13,13,40,22.30
2016,08,13,13,41,22.30
2016,08,13,13,42,22.30
2016,08,13,13,43,22.40
2016,08,13,13,44,22.50
2016,08,13,13,45,22.60
2016,08,13,13,46,22.60
2016,08,13,13,47,22.50
2016,08,13,13,48,22.40
2016,08,13,13,49,22.30
2016,08,13,13,50,22.20
2016,08,13,13,51,22.10
2016,08,13,13,52,22.10
2016,08,13,13,53,22.00
2016,08,13,13,54,22.00
2016,08,13,13,55,22.00
2016,08,13,13,56,22.00
2016,08,13,13,57,22.10
2016,08,13,13,58,22.20
2016,08,13,13,59,22.30
2016,08,13,14,00,22.30
2016,08,13,14,01,22.30
2016,08,13,14,02,22.30
2016,08,13,14,03,22.40
2016,08,13,14,04,22.50
2016,08,13,14,05,22.60
2016,08,13,14,06,22.50
2016,08,13,14,07,22.40
2016,08,13,14,08,22.40
2016,08,13,14,09,22.40
2016,08,13,14,10,22.40
2016,08,13,14,11,22.40
2016,08,13,14,12,22.60
2016,08,13,14,13,22.70
2016,08,13,14,14,22.60
2016,08,13,14,15,22.50
2016,08,13,14,16,22.50
2016,08,13,14,17,22.40
2016,08,13,14,18,22.40
2016,08,13,14,19,22.40
2016,08,13,14,20,22.60
2016,08,13,14,21,22.70
2016,08,13,14,22,22.60
2016,08,13,14,23,22.60
2016,08,13,14,24,22.60
2016,08,13,14,25,22.70
2016,08,13,14,26,22.70
2016,08,13,14,27,22.60
2016,08,13,14,28,22.60
2016,08,13,14,29,22.60
2016,08,13,14,30,22.80
2016,08,13,14,31,22.80
2016,08,13,14,32,22.80
2016,08,13,14,33,22.80
2016,08,13,14,34,22.90
2016,08,13,14,35,23.00
2016,08,13,14,36,22.90
2016,08,13,14,37,22.90
2016,08,13,14,38,22.90
2016,08,13,14,39,22.90
2016,08,13,14,40,22.80
2016,08,13,14,41,22.70
2016,08,13,14,42,22.60
2016,08,13,14,43,22.60
2016,08,13,14,44,22.70
2016,08,13,14,45,22.80
2016,08,13,14,46,22.70
2016,08,13,14,47,22.70
2016,08,13,14,48,22.60
2016,08,13,14,49,22.50
2016,08,13,14,50,22.30
2016,08,13,14,51,22.30
2016,08,13,14,52,22.30
2016,08,13,14,53,22.30
2016,08,13,14,54,22.30
2016,08,13,14,55,22.30
2016,08,13,14,56,22.20
2016,08,13,14,57,22.10
2016,08,13,14,58,22.00
2016,08,13,14,59,22.10
2016,08,13,15,00,22.20
2016,08,13,15,01,22.40
2016,08,13,15,02,22.50
2016,08,13,15,03,22.60
2016,08,13,15,04,22.80
2016,08,13,15,05,22.90
2016,08,13,15,06,22.90
2016,08,13,15,07,22.90
2016,08,13,15,08,22.90
2016,08,13,15,09,22.90
2016,08,13,15,10,22.90
2016,08,13,15,11,22.80
2016,08,13,15,12,22.70
2016,08,13,15,13,22.60
2016,08,13,15,14,22.60
2016,08,13,15,15,22.60
2016,08,13,15,16,22.60
2016,08,13,15,17,22.60
2016,08,13,15,18,22.50
2016,08,13,15,19,22.50
2016,08,13,15,20,22.50
2016,08,13,15,21,22.60
2016,08,13,15,22,22.70
2016,08,13,15,23,22.80
2016,08,13,15,24,22.80
2016,08,13,15,25,22.90
2016,08,13,15,26,23.00
2016,08,13,15,27,23.00
2016,08,13,15,28,22.90
2016,08,13,15,29,22.90
2016,08,13,15,30,22.90
2016,08,13,15,31,22.90
2016,08,13,15,32,22.90
2016,08,13,15,33,22.90
2016,08,13,15,34,23.00
2016,08,13,15,35,23.10
2016,08,13,15,36,23.00
2016,08,13,15,37,22.90
2016,08,13,15,38,22.80
2016,08,13,15,39,22.70
2016,08,13,15,40,22.60
2016,08,13,15,41,22.60
2016,08,13,15,42,22.60
2016,08,13,15,43,22.60
2016,08,13,15,44,22.40
2016,08,13,15,45,22.30
2016,08,13,15,46,22.20
2016,08,13,15,47,22.20
2016,08,13,15,48,22.20
2016,08,13,15,49,22.20
2016,08,13,15,50,22.10
2016,08,13,15,51,22.00
2016,08,13,15,52,22.00
2016,08,13,15,53,21.90
2016,08,13,15,54,21.80
2016,08,13,15,55,21.70
2016,08,13,15,56,21.70
2016,08,13,15,57,21.70
2016,08,13,15,58,21.60
2016,08,13,15,59,21.60
2016,08,13,16,00,21.60
2016,08,13,16,01,21.70
2016,08,13,16,02,21.70
2016,08,13,16,03,21.60
2016,08,13,16,04,21.60
2016,08,13,16,05,21.60
2016,08,13,16,06,21.60
2016,08,13,16,07,21.50
2016,08,13,16,08,21.40
2016,08,13,16,09,21.40
2016,08,13,16,10,21.40
2016,08,13,16,11,21.50
2016,08,13,16,12,21.60
2016,08,13,16,13,21.60
2016,08,13,16,14,21.70
2016,08,13,16,15,21.60
2016,08,13,16,16,21.60
2016,08,13,16,17,21.60
2016,08,13,16,18,21.60
2016,08,13,16,19,21.60
2016,08,13,16,20,21.60
2016,08,13,16,21,21.60
2016,08,13,16,22,21.50
2016,08,13,16,23,21.40
2016,08,13,16,24,21.40
2016,08,13,16,25,21.50
2016,08,13,16,26,21.60
2016,08,13,16,27,21.60
2016,08,13,16,28,21.70
2016,08,13,16,29,21.70
2016,08,13,16,30,21.80
2016,08,13,16,31,21.80
2016,08,13,16,32,21.80
2016,08,13,16,33,21.90
2016,08,13,16,34,22.00
2016,08,13,16,35,22.00
2016,08,13,16,36,22.10
2016,08,13,16,37,22.20
2016,08,13,16,38,22.30
2016,08,13,16,39,22.30
2016,08,13,16,40,22.30
2016,08,13,16,41,22.30
2016,08,13,16,42,22.30
2016,08,13,16,43,22.30
2016,08,13,16,44,22.20
2016,08,13,16,45,22.20
2016,08,13,16,46,22.10
2016,08,13,16,47,22.00
2016,08,13,16,48,21.70
2016,08,13,16,49,21.50
2016,08,13,16,50,21.20
2016,08,13,16,51,20.90
2016,08,13,16,52,20.70
2016,08,13,16,53,20.50
2016,08,13,16,54,20.40
2016,08,13,16,55,20.30
2016,08,13,16,56,20.20
2016,08,13,16,57,20.00
2016,08,13,16,58,19.80
2016,08,13,16,59,19.70
2016,08,13,17,00,19.60
2016,08,13,17,01,19.50
2016,08,13,17,02,19.40
2016,08,13,17,03,19.40
2016,08,13,17,04,19.40
2016,08,13,17,05,19.40
2016,08,13,17,06,19.50
2016,08,13,17,07,19.50
2016,08,13,17,08,19.50
2016,08,13,17,09,19.40
2016,08,13,17,10,19.30
2016,08,13,17,11,19.10
2016,08,13,17,12,18.90
2016,08,13,17,13,18.70
2016,08,13,17,14,18.50
2016,08,13,17,15,18.20
2016,08,13,17,16,18.00
2016,08,13,17,17,17.90
2016,08,13,17,18,17.90
2016,08,13,17,19,17.80